PSLV R/B, 44862

Orbit data source: Space-Track

PSLV R/B, 44862 is space debris in LEO originally from a launch on Wed, 11 Dec 2019 UTC launched from the Sirharikota (SRI). Debris objects in space refer to the collection of defunct objects orbiting the Earth. Examples of debris include non-operational satellites, rocket bodies, and fragments generated from explosions, collisions, or faulty payload assembly.

Loading next visibility...
Identifier
44862, 2019-089L
Orbit
LEO
Last TLE update
6 hours ago
Origin
Manufacturer
VSSC/LPSC
Mission
Spacecraft
Bus & Motor
PS-4, Unknown motor
Mass
920 kg wet, 920 kg dry
Launch date (UTC)
2019-12-11 (6 years ago)
Launch vehicle
Unknown
Launch site
Sirharikota (SRI)
Object type
Payload
Rocket body
Debris
Shape & HBR
Cyl + Cyl + 2 Nozzle, 3.238 m
Radar Cross Section
6.185 m², Large (>1 m²)

Expand to show TLE details & history

TLE from 6 hours ago
0 PSLV R/B
1 44862U 19089L   25186.12071257  .00012136  00000-0  34383-3 0  9995
2 44862  36.9715  94.6753 0023443 348.3272  11.6936 15.35384370308080
Epoch: 2025-07-05T02:53Z
TLE epoch observation values (Epoch: 2025-07-05T02:53:49.566Z)
Latitude
0.00001°
Longitude
127.85547°
Altitude
443.197 km
Speed
7.657 km/s
True Right ascension
06h 18m 42s
True Declination
0° 00' 00"
Sunlit
Object was in daylight at epoch
Visualization orbit readout
Latitude
-32.45333°
Longitude
3.5131°
Altitude
472.911 km
Speed
7.628 km/s
Apparent Right ascension
01h 45m 26s
Apparent Declination
-73° 46' 49"
Sunlit
Object is in full shadow
Visualization observer readout
Local Sidereal Time
20:31:51
Azimuth
160.497° S
Elevation
-34.961°
Doppler factor
1
Orbital elements
Apogee altitude
478.768 km
Perigee altitude
446.693 km
Semi-major axis
6,840.868 km
Eccentricity
0.00234
Inclination
36.9715°
RAAN
94.6753°
Arg. of periapsis
348.3272°
True anomaly
Unknown
Mean anomaly
11.6936°
Eccentric anomaly
Unknown
Mean motion
3.83598 °/min
Orbital period
93.85 mins
BSTAR
0.00034383
Loading maneuver chart data...
Loading SW <> Apogee altitude chart data...
Loading historical data...
Loading historical data...
Loading historical data...
Loading historical data...
Loading historical data...
Loading historical data...
Loading historical data...

PSLV R/B Visibility forecast

Observer location: undefined°, undefined°

Span
Click to sort rows by Start time (UTC) header in descending order
Start Az.
Max El. time (UTC)
Max El. Az.
Max El.
End time (UTC)
End Az.
5 mins2025-07-05 21:51:56.224Z214.934° SW2025-07-05 21:54:56.224Z150.221° SSE23.383°2025-07-05 21:56:56.224Z109.277° ESE
5 mins2025-07-05 23:30:56.224Z244.437° WSW2025-07-05 23:32:56.224Z188.309° SSW37.441°2025-07-05 23:35:56.224Z102.52° ESE
5 mins2025-07-06 01:09:56.224Z249.034° W2025-07-06 01:11:56.224Z182.743° SSW33.34°2025-07-06 01:14:56.224Z121.596° SE
|